Regional Weather Roundup
Issued by NWS

Home | Current Version | Previous Version | Text Only | Print | Product List | Glossary Off
Versions: 1 2 3 4 5 6 7 8 9 10 11 12 13 14 15 16 17 18 19 20 21 22 23 24 25 26 27

000
ASUS45 KBOU 311407
RWRCO

WEATHER ROUNDUP FOR COLORADO
NATIONAL WEATHER SERVICE DENVER/BOULDER CO
800 AM MDT FRI OCT 31 2014

NOTE: "FAIR" INDICATES FEW OR NO CLOUDS BELOW 12000 FEET WITH NO
SIGNIFICANT WEATHER AND/OR OBSTRUCTIONS TO VISIBILITY.

COZ001>005-013-030-031-311500-
...NORTHWEST COLORADO...

CITY           SKY/WX    TMP DP  RH WIND       PRES   REMARKS
CRAIG          CLEAR     24  20  84 CALM      30.24S
HAYDEN         CLEAR     34  25  69 E13       30.25S WCI  25
MEEKER         PTCLDY    33  24  69 VRB3      30.25S
MOUNT WERNER   NOT AVBL
STEAMBOAT SPGS CLEAR     30  25  81 CALM      30.28R
WALDEN         CLEAR     27  19  74 CALM      30.32S
$$

COZ006>008-011-311500-
...WEST CENTRAL VALLEYS...

CITY           SKY/WX    TMP DP  RH WIND       PRES   REMARKS
GRAND JUNCTION MOCLDY    37  26  64 E6        30.19S
MONTROSE       PTCLDY    34  23  64 SE6       30.27S WCI  29
EAGLE          PTCLDY    25  23  93 VRB6      30.38R WCI  18
RIFLE          PTCLDY    32  23  69 SW5       30.25F WCI  27
DELTA          PTCLDY    36  25  64 CALM      30.25S
NUCLA          PTCLDY    37  21  52 CALM      30.30R
$$

COZ017>023-064>068-311500-
...SOUTHWEST COLORADO...

CITY           SKY/WX    TMP DP  RH WIND       PRES   REMARKS
DURANGO        PTCLDY    33  25  72 CALM      30.36S
CORTEZ         CLEAR     51  22  31 VRB5      30.28S
PAGOSA SPRINGS PTCLDY    32  22  66 CALM      30.41S
TELLURIDE      PTCLDY    45  14  28 SE3       30.41S
WOLF CREEK PAS CLEAR     32  12  43 SW15G22   30.54S WCI  22
$$

COZ009-010-012-014-032>034-037-058>063-311500-
...CENTRAL COLORADO...

CITY           SKY/WX    TMP DP  RH WIND       PRES   REMARKS
ASPEN          PTCLDY    31  18  58 S7        30.33R WCI  24
BUENA VISTA    PTCLDY    23  19  82 CALM      30.42S
COPPER MTN     PTCLDY    45  -8  11 SW12G21   30.50S
BERTHOUD PASS  FAIR      34  32  93 W23G31    30.51S WCI  22
COTTONWOOD PAS PTCLDY    36  19  51 CALM      30.44S
GUNNISON       PTCLDY    19  12  73 CALM      30.44R
KREMMLING      CLEAR     21  19  93 CALM      30.39S
LEADVILLE      PTCLDY    20  15  81 S3        30.43S
MONARCH PASS   CLEAR     32  14  47 SW18      30.61S WCI  20
SALIDA         PTCLDY    30  21  69 CALM      30.50R
SUNLIGHT       PTCLDY    37  16  41 CALM      30.45S
WILKERSON PASS NOT AVBL
$$

COZ069>075-311500-
...SAN LUIS VALLEY/SANGRE DE CRISTO MOUNTAINS...

CITY           SKY/WX    TMP DP  RH WIND       PRES   REMARKS
ALAMOSA        MOCLDY    25  16  68 CALM      30.42R
LA VETA PASS   PTCLDY    32  19  59 S12G22    30.45S WCI  23
SAGUACHE       CLEAR     28  16  59 NW12      30.44R WCI  18
$$

COZ035-036-038>040-311500-
...NORTHERN COLORADO FRONT RANGE...

CITY           SKY/WX    TMP DP  RH WIND       PRES   REMARKS
DENVER INTL AP MOCLDY    35  27  72 W6        30.32S WCI  30
DMNS CITY PARK   N/A     36  28  71 N2        30.33S
AURORA         MOCLDY    39  26  60 SW14G20   30.33S
FRONT RANGE AP NOT AVBL
ERIE MUNI ARPT PTCLDY    31  29  92 NW3       30.33S
BOULDER MUN AP PTCLDY    34  28  80 CALM      30.33S
CENTENNIAL     MOCLDY    37  27  67 CALM      30.32S
BROOMFIELD     MOCLDY    36  28  75 NW12      30.33R
FORT COLLINS   PTCLDY    32  27  80 N8        30.35S WCI  25
LONGMONT       PTCLDY    37  30  77 N5        30.35S
$$

COZ041-046-047-076>085-087-088-311500-
...PIKES PEAK/PALMER DIVIDE AND SOUTHERN FOOTHILLS...

CITY           SKY/WX    TMP DP  RH WIND       PRES   REMARKS
COLO. SPRINGS  PTCLDY    33  26  75 E3        30.41S
A. F. ACADEMY  CLEAR     31  25  77 SE10      30.38F WCI  22
ELLICOTT       CLEAR     31  27  85 SE14      30.39R WCI  21
FALCON         CLEAR     29  26  88 SW6       30.40S WCI  23
FORT CARSON    PTCLDY    34  25  71 S5        30.40R WCI  29
LIMON          CLEAR     26  23  88 SE6       30.40S WCI  19
MONUMENT HILL  PTCLDY    32  27  80 SW9       30.34R WCI  24
TRINIDAD       CLEAR     33  22  63 NW7       30.37S WCI  27
$$

COZ042>045-048>051-090-091-311500-
...NORTHEAST COLORADO...

CITY           SKY/WX    TMP DP  RH WIND       PRES   REMARKS
GREELEY ARPT   PTCLDY    34  23  64 E8        30.34F WCI  27
AKRON          CLEAR     28  27  96 SE16      30.40S WCI  16
BURLINGTON     CLEAR     29  26  89 S7        30.46R WCI  22
WRAY           MOCLDY   N/A N/A N/A CALM      30.47S
STERLING       NOT AVBL
HOLYOKE        FOG       32  30  93 E7        30.47R VSB<1/4 WCI  26
FORT MORGAN    CLEAR     30  28  91 E7        30.40R WCI  24
$$

COZ086-089-092>099-311500-
...SOUTHEAST COLORADO...

CITY           SKY/WX    TMP DP  RH WIND       PRES   REMARKS
PUEBLO         PTCLDY    35  26  69 NE8       30.40S WCI  29
LA JUNTA       PTCLDY    34  27  75 E13       30.43R WCI  25
LAMAR          PTCLDY    31  27  85 E6        30.46R WCI  25
SPRINGFIELD      N/A     32  28  85 SE3       30.46R
$$



USA.gov is the U.S. government's official web portal to all federal, state and local government web resources and services.